Tracking 31011 objects as of 12-Jul-2025
HD Live streaming from Space Station
objects crossing your sky now

CENTISPACE-1 S14

Track CENTISPACE-1 S14 now!
10-day predictions


NORAD ID: 62583
Int'l Code: 2025-007J
Perigee: 660.8 km
Apogee: 673.9 km
Inclination: 55.0 °
Period: 97.9 minutes
Semi major axis: 7038 km
RCS: Unknown
Launch date: January 13, 2025
Source: People's Republic of China (PRC)
Launch site: Yellow Sea Launch Area, China (YSLA)
Your satellite tracking list
Your tracking list is empty




NASA's NSSDC Master Catalog

Two Line Element Set (TLE):
1 62583U 25007J   25192.90999181  .00000618  00000-0  13452-3 0  9996
2 62583  54.9809 114.2029 0009287 258.7830 101.2123 14.70277901 26533
Source of the keplerian elements: AFSPC